Waarnemingen

Advertentie
Mijn weer
Twenthe, Nederland (6290): temperatuur & dauwpunt: 20.09.2017 02:00:00 - 26.09.2017 02:00:00 (CEST)Twenthe, Nederland (6290): temperatuur 5cm: 20.09.2017 02:00:00 - 26.09.2017 02:00:00 (CEST)Twenthe, Nederland (6290): windsnelheid & windstoten: 20.09.2017 02:00:00 - 26.09.2017 02:00:00 (CEST)Twenthe, Nederland (6290): windrichting: 20.09.2017 02:00:00 - 26.09.2017 02:00:00 (CEST)Twenthe, Nederland (6290): luchtdruk: 20.09.2017 02:00:00 - 26.09.2017 02:00:00 (CEST)Twenthe, Nederland (6290): zicht: 20.09.2017 02:00:00 - 26.09.2017 02:00:00 (CEST)Twenthe, Nederland (6290): neerslag: 20.09.2017 02:00:00 - 26.09.2017 02:00:00 (CEST)
Datum & Tijd tt [°C] td [°C] tt 5cm [°C] ff [km/u] ff [kn] fx [km/u] fx [kn] dd ppp [hPa] vv [km] rr [mm]
26.09.2017 02:00:00 - - - - - - - - - - -
26.09.2017 01:00:00 11,2 11,1 9,3 7 4 11 6 NO 1021,7 2,1 0,0
26.09.2017 00:00:00 12,0 11,8 9,4 7 4 14 8 NO 1021,7 3,1 0,0
25.09.2017 23:00:00 12,1 12,1 9,7 0 0 7 4 N 1021,9 0,4 0,0
25.09.2017 22:00:00 12,6 12,5 10,4 4 2 7 4 NO 1022,0 5 0,0
25.09.2017 21:00:00 11,5 11,1 8,2 4 2 7 4 NNO 1022,0 2,1 0,0
25.09.2017 20:00:00 13,5 12,7 10,0 7 4 11 6 NO 1021,7 7 0,0
25.09.2017 19:00:00 15,4 13,0 15,0 7 4 14 8 NO 1021,5 10 0,0
25.09.2017 18:00:00 16,4 13,0 16,5 7 4 14 8 NO 1021,5 11 0,0
25.09.2017 17:00:00 16,7 12,9 17,2 11 6 22 12 ONO 1021,4 10 0,0
25.09.2017 16:00:00 17,1 13,1 18,1 14 8 25 14 ONO 1021,5 11 0,0
25.09.2017 15:00:00 16,6 13,1 17,9 18 10 29 16 NO 1021,7 8 0,0
25.09.2017 14:00:00 17,3 13,5 18,7 14 8 22 12 NO 1021,8 8 0,0
25.09.2017 13:00:00 16,1 12,7 17,5 11 6 22 12 ONO 1022,1 8 0,0
25.09.2017 12:00:00 16,1 12,6 16,8 11 6 18 10 O 1022,3 11 0,0
25.09.2017 11:00:00 14,9 12,6 15,5 11 6 14 8 ONO 1022,5 8 0,0
25.09.2017 10:00:00 14,0 12,9 14,2 11 6 18 10 ONO 1022,4 4,6 0,0
25.09.2017 09:00:00 13,7 13,1 13,7 7 4 18 10 ONO 1022,3 3,6 0,0
25.09.2017 08:00:00 13,4 12,9 13,1 7 4 14 8 ONO 1022,5 2,4 0,0
25.09.2017 07:00:00 13,4 12,9 13,1 7 4 14 8 ONO 1022,2 2,5 0,0
25.09.2017 06:00:00 13,1 13,1 12,5 7 4 11 6 NO 1022,2 1,7 0,0
25.09.2017 05:00:00 13,1 13,1 12,6 7 4 14 8 ONO 1022,1 1,8 0,0
25.09.2017 04:00:00 13,6 13,3 13,2 4 2 11 6 ONO 1022,5 4,0 0,0
25.09.2017 03:00:00 13,6 13,4 13,2 7 4 11 6 NO 1022,7 3,4 0,0
25.09.2017 02:00:00 11,7 11,6 11,6 4 2 11 6 N 1023,0 2,5 0,0
25.09.2017 01:00:00 10,7 10,7 6,8 0 0 11 6 N 1023,2 0,1 0,0
25.09.2017 00:00:00 12,0 11,9 8,4 7 4 11 6 ONO 1023,3 4,9 0,0
24.09.2017 23:00:00 11,0 10,9 9,2 7 4 7 4 NO 1023,5 3,5 0,0
24.09.2017 22:00:00 11,1 10,9 8,3 0 0 11 6 N 1023,5 1,1 0,0
24.09.2017 21:00:00 14,1 12,1 11,9 7 4 14 8 O 1023,5 17 0,0
24.09.2017 20:00:00 14,9 12,0 13,5 11 6 14 8 ONO 1023,3 28 0,0
24.09.2017 19:00:00 16,3 11,8 15,2 7 4 18 10 ONO 1023,0 44 0,0
24.09.2017 18:00:00 18,4 11,2 18,3 7 4 18 10 ONO 1023,0 11 0,0
24.09.2017 17:00:00 18,9 10,7 20,3 7 4 18 10 ONO 1023,1 15 0,0
24.09.2017 16:00:00 19,0 11,3 20,3 11 6 18 10 NO 1023,2 25 0,0
24.09.2017 15:00:00 18,7 10,4 20,7 11 6 22 12 NO 1023,5 29 0,0
24.09.2017 14:00:00 18,3 11,1 20,7 11 6 18 10 NNO 1023,7 20 0,0
24.09.2017 13:00:00 17,5 12,2 20,0 14 8 22 12 NO 1023,6 20 0,0
24.09.2017 12:00:00 16,4 12,5 18,5 11 6 18 10 ONO 1023,7 15 0,0
24.09.2017 11:00:00 13,4 12,9 15,3 4 2 7 4 N 1023,9 4,4 0,0
24.09.2017 10:00:00 10,5 10,5 10,7 4 2 7 4 NO 1023,9 1,6 0,0
24.09.2017 09:00:00 9,4 9,4 9,7 4 2 7 4 NO 1023,5 0,2 0,0
24.09.2017 08:00:00 9,4 9,4 9,6 7 4 7 4 N 1023,3 0,1 0,0
24.09.2017 07:00:00 9,1 9,1 9,1 4 2 7 4 NO 1023,0 0,1 0,0
24.09.2017 06:00:00 9,6 9,6 9,6 4 2 7 4 NNO 1022,7 0,1 0,0
24.09.2017 05:00:00 9,9 9,8 8,4 4 2 7 4 N 1022,9 0,1 0,0
24.09.2017 04:00:00 6,9 6,9 5,7 7 4 7 4 NO 1022,9 0,2 0,0
24.09.2017 03:00:00 7,0 7,0 4,0 0 0 7 4 N 1023,0 1,2 0,0
24.09.2017 02:00:00 6,6 6,6 3,7 4 2 4 2 N 1023,3 0,1 0,0
24.09.2017 01:00:00 7,4 7,4 3,7 4 2 4 2 ONO 1023,4 0,4 0,0
24.09.2017 00:00:00 7,2 7,2 3,9 4 2 4 2 NNO 1023,3 0,3 0,0
23.09.2017 23:00:00 8,3 8,2 4,4 0 0 0 0 N 1023,5 0,2 0,0
23.09.2017 22:00:00 9,2 9,2 4,9 0 0 0 0 N 1023,6 6 0,0
23.09.2017 21:00:00 10,0 9,9 6,0 0 0 4 2 N 1023,6 27 0,0
23.09.2017 20:00:00 11,3 10,7 8,1 0 0 4 2 N 1023,7 23 0,0
23.09.2017 19:00:00 15,3 11,5 15,3 0 0 7 4 N 1023,4 43 0,0
23.09.2017 18:00:00 17,2 9,3 17,3 7 4 11 6 ONO 1023,4 34 0,0
23.09.2017 17:00:00 18,5 9,8 20,2 4 2 11 6 ZZW 1023,5 44 0,0
23.09.2017 16:00:00 17,1 9,6 18,9 7 4 11 6 NNW 1023,9 43 0,0
23.09.2017 15:00:00 17,8 9,5 21,0 7 4 11 6 ZZW 1024,2 37 0,0
23.09.2017 14:00:00 16,2 10,6 18,8 4 2 11 6 NO 1024,6 20 0,0
23.09.2017 13:00:00 16,4 11,2 19,3 4 2 11 6 NO 1024,8 29 0,0
23.09.2017 12:00:00 15,6 10,8 17,3 4 2 14 8 N 1025,1 33 0,0
23.09.2017 11:00:00 14,4 11,5 16,0 4 2 7 4 NNW 1025,1 27 0,0
23.09.2017 10:00:00 12,0 11,1 13,2 0 0 11 6 N 1024,9 10 0,0
23.09.2017 09:00:00 10,1 10,1 11,1 4 2 4 2 WZW 1024,5 0,3 0,0
23.09.2017 08:00:00 9,7 9,7 9,7 4 2 7 4 Z 1024,3 0,1 0,0
23.09.2017 07:00:00 10,4 10,4 9,7 7 4 18 10 NW 1023,8 0,1 0,0
23.09.2017 06:00:00 11,5 11,4 11,4 11 6 14 8 NW 1023,8 0,5 0,0
23.09.2017 05:00:00 11,9 11,9 11,9 7 4 11 6 NW 1023,6 0,2 0,0
23.09.2017 04:00:00 11,6 11,6 11,5 7 4 11 6 WNW 1023,5 1,1 0,0
23.09.2017 03:00:00 10,5 10,5 9,5 0 0 4 2 N 1023,4 0,1 0,0
23.09.2017 02:00:00 9,9 9,9 8,4 0 0 7 4 N 1023,1 0,1 0,0
23.09.2017 01:00:00 11,2 11,1 9,6 4 2 7 4 WZW 1022,9 0,1 0,0
23.09.2017 00:00:00 12,7 12,6 11,6 4 2 7 4 W 1022,7 0,2 0,0
22.09.2017 23:00:00 13,2 12,9 12,2 4 2 7 4 NNO 1022,4 2,0 1,4
22.09.2017 22:00:00 14,1 13,6 13,9 7 4 11 6 W 1022,3 4,2 1,0
22.09.2017 21:00:00 13,7 12,9 13,3 4 2 4 2 ZZO 1021,5 22 0,0
22.09.2017 20:00:00 14,8 13,3 14,0 4 2 4 2 O 1021,0 30 0,0
22.09.2017 19:00:00 17,1 12,7 16,7 0 0 7 4 N 1020,7 30 0,0
22.09.2017 18:00:00 17,6 13,0 17,6 7 4 14 8 ZW 1020,4 33 0,0
22.09.2017 17:00:00 18,7 10,6 19,7 7 4 14 8 ZW 1020,3 28 0,0
22.09.2017 16:00:00 19,0 11,4 20,5 7 4 11 6 ZW 1020,4 21 0,0
22.09.2017 15:00:00 17,8 12,1 19,2 4 2 11 6 WZW 1020,3 14 0,0
22.09.2017 14:00:00 16,8 12,5 17,7 4 2 7 4 ZZW 1020,3 13 0,0
22.09.2017 13:00:00 16,5 11,4 18,7 4 2 11 6 Z 1020,2 12 0,0
22.09.2017 12:00:00 15,7 11,3 17,3 4 2 7 4 ZZO 1020,3 12 0,0
22.09.2017 11:00:00 14,4 11,0 15,9 4 2 7 4 Z 1020,3 12 0,0
22.09.2017 10:00:00 12,7 10,7 13,3 4 2 7 4 ZZO 1020,2 10 0,0
22.09.2017 09:00:00 10,0 9,5 9,2 4 2 7 4 OZO 1019,9 5 0,0
22.09.2017 08:00:00 8,0 8,0 4,8 4 2 7 4 ZO 1019,7 1,6 0,0
22.09.2017 07:00:00 6,5 6,4 3,6 4 2 7 4 O 1019,4 0,3 0,0
22.09.2017 06:00:00 8,1 8,0 4,2 4 2 7 4 O 1019,4 3,0 0,0
22.09.2017 05:00:00 8,4 8,4 4,9 4 2 4 2 OZO 1019,3 1,0 0,0
22.09.2017 04:00:00 8,1 8,0 5,3 0 0 4 2 N 1019,3 0,6 0,0
22.09.2017 03:00:00 8,0 7,9 4,7 0 0 7 4 N 1019,6 2,6 0,0
22.09.2017 02:00:00 9,2 9,1 5,2 4 2 7 4 ZO 1019,9 5 0,0
22.09.2017 01:00:00 9,2 9,2 5,2 0 0 4 2 N 1019,9 4,3 0,0
22.09.2017 00:00:00 9,7 9,7 5,8 0 0 7 4 N 1020,0 6 0,0
21.09.2017 23:00:00 8,8 8,6 5,3 0 0 4 2 N 1020,0 10 0,0
21.09.2017 22:00:00 9,6 9,5 5,8 0 0 4 2 N 1020,0 1,1 0,0
21.09.2017 21:00:00 10,5 10,4 6,9 4 2 4 2 OZO 1020,0 14 0,0
21.09.2017 20:00:00 12,0 11,4 8,7 0 0 4 2 N 1019,8 38 0,0
21.09.2017 19:00:00 15,3 12,2 15,2 4 2 11 6 ZO 1019,6 41 0,0
21.09.2017 18:00:00 17,7 10,7 17,8 7 4 14 8 ZO 1019,5 38 0,0
21.09.2017 17:00:00 18,5 9,8 18,8 7 4 18 10 Z 1019,6 44 0,0
21.09.2017 16:00:00 18,1 10,2 18,8 7 4 29 16 Z 1019,8 41 0,0
21.09.2017 15:00:00 18,6 9,7 20,3 11 6 22 12 ZZW 1019,9 28 0,0
21.09.2017 14:00:00 17,9 9,7 20,2 11 6 22 12 ZZW 1020,2 33 0,0
21.09.2017 13:00:00 17,4 10,7 19,3 14 8 25 14 Z 1020,6 25 0,0
21.09.2017 12:00:00 16,6 10,5 18,6 14 8 18 10 ZZW 1020,8 29 0,0
21.09.2017 11:00:00 15,3 10,3 16,7 11 6 18 10 Z 1021,1 28 0,0
21.09.2017 10:00:00 13,6 9,7 14,4 11 6 14 8 Z 1021,2 26 0,0
21.09.2017 09:00:00 11,7 9,4 11,4 11 6 18 10 Z 1020,8 20 0,0
21.09.2017 08:00:00 10,2 8,9 9,0 11 6 14 8 Z 1020,5 13 0,0
21.09.2017 07:00:00 10,3 8,9 8,8 11 6 14 8 Z 1020,4 13 0,0
21.09.2017 06:00:00 11,4 9,4 10,7 7 4 18 10 Z 1020,3 15 0,0
21.09.2017 05:00:00 11,8 9,7 11,2 14 8 18 10 Z 1020,2 14 0,0
21.09.2017 04:00:00 11,6 9,6 10,9 7 4 18 10 Z 1020,3 13 0,0
21.09.2017 03:00:00 12,0 9,5 11,2 14 8 22 12 Z 1020,1 14 0,0
21.09.2017 02:00:00 12,3 9,4 11,6 11 6 18 10 Z 1020,3 16 0,0
21.09.2017 01:00:00 11,7 9,3 10,9 11 6 14 8 Z 1020,3 13 0,0
21.09.2017 00:00:00 11,6 9,4 10,6 11 6 14 8 Z 1020,3 13 0,0
20.09.2017 23:00:00 11,1 9,3 8,4 11 6 14 8 Z 1020,4 12 0,0
20.09.2017 22:00:00 9,9 9,3 6,6 7 4 7 4 ZO 1020,2 6 0,0
20.09.2017 21:00:00 10,5 9,8 6,8 7 4 11 6 ZZO 1020,3 5 0,0
20.09.2017 20:00:00 11,4 10,2 9,5 7 4 11 6 Z 1020,0 9 0,0
20.09.2017 19:00:00 13,9 10,6 13,5 7 4 18 10 Z 1019,9 14 0,0
20.09.2017 18:00:00 14,8 10,1 14,8 11 6 25 14 ZW 1019,7 15 0,0
20.09.2017 17:00:00 16,2 10,8 17,7 18 10 25 14 ZW 1019,7 16 0,0
20.09.2017 16:00:00 14,9 10,5 15,6 14 8 25 14 ZZW 1019,9 20 0,0
20.09.2017 15:00:00 14,2 11,0 15,1 14 8 25 14 ZW 1020,1 31 0,0
20.09.2017 14:00:00 14,0 11,4 15,5 18 10 25 14 ZW 1020,2 14 0,0
20.09.2017 13:00:00 13,4 11,3 14,3 14 8 22 12 ZZW 1020,3 15 0,0
20.09.2017 12:00:00 13,0 11,5 13,8 11 6 18 10 ZW 1020,4 9 0,0
20.09.2017 11:00:00 12,4 11,2 12,7 7 4 14 8 ZW 1020,4 9 0,1
20.09.2017 10:00:00 11,8 10,6 11,9 4 2 7 4 ZW 1020,1 7 0,0
20.09.2017 09:00:00 11,3 10,3 11,2 7 4 14 8 ZZW 1019,8 12 0,0
20.09.2017 08:00:00 10,8 9,6 10,3 11 6 14 8 ZW 1019,7 19 0,0
20.09.2017 07:00:00 10,4 9,4 9,7 7 4 14 8 ZW 1019,6 16 0,0
20.09.2017 06:00:00 9,8 9,0 9,2 7 4 18 10 ZZW 1019,5 17 0,0
20.09.2017 05:00:00 10,1 9,2 9,6 11 6 14 8 ZW 1019,5 16 0,0
20.09.2017 04:00:00 9,5 9,0 8,7 7 4 11 6 WZW 1019,3 11 0,0
20.09.2017 03:00:00 9,6 9,2 8,9 7 4 18 10 WZW 1019,6 9 0,0
20.09.2017 02:00:00 9,0 8,8 7,2 7 4 11 6 WZW 1019,8 6 0,0

tt = temperatuur
td = dauwpunt
tt 5cm = temperatuur 5cm
ff = windsnelheid
fx = windstoten
dd = windrichting
ppp = luchtdruk
vv = zicht
rr = neerslag

Weerstations in de omgeving